{"data":{"norad_id":51127,"intl_designator":"2022-005Z","name":"STARLINK-3370","alt_names":[],"object_type":"PAYLOAD","status":"ACTIVE","operator":null,"country":"US","launch_date":"2022-01-19","launch_site_code":"AFETR","launch_vehicle":null,"mission":null,"orbit_class":"UNKNOWN","rcs_meters":null,"size_class":null,"mass_kg":null,"dimensions":null,"purposes":["comms"],"wikipedia_slug":null,"has_3d_model":false,"image_url":null,"decayed_at":null,"tle_current":{"epoch":"2026-09-20T00:45:18.787680Z","epoch_age_seconds":88959,"freshness":"FRESH","line1":"1 51127U 22005Z   26263.03146745 -.00000055  00000+0  10001-4 0  9990","line2":"2 51127  53.1588 131.9694 0001398  86.5235 273.5927 15.31704638258278","mean_motion":15.31704638,"eccentricity":0.0001398,"inclination_deg":53.1588,"raan_deg":131.9694,"arg_perigee_deg":86.5235,"mean_anomaly_deg":273.5927,"bstar":1.0001e-5,"rev_number":25827,"period_min":94.012903289257,"perigee_km":469.76869855276,"apogee_km":471.68364069499,"semimajor_km":6848.8631696239,"source":"CELESTRAK","updated_at":"2026-09-20T09:00:39.588225Z"}}}